"Pseudo-MPEC" for ZTF02s3

Created 2019 Feb 19 10:18:15 UT using Find_Orb

Click here for an explanation of pseudo-MPECs

 
 Astrometry: 
     ZTF02s3  C2019 02 10.25618809 50 33.48 +18 34 05.1    ~2ALI 17.36RUNEOCPI41
     ZTF02s3  C2019 02 10.25653509 50 40.26 +18 33 09.1    ~2ALI 17.36RUNEOCPI41
     ZTF02s3  C2019 02 10.26484209 53 26.44 +18 10 20.9    ~2ALI 16.98RUNEOCPI41
     ZTF02s3  C2019 02 10.26518909 53 33.62 +18 09 18.3    ~2ALI 16.98RUNEOCPI41

Station data:
(I41) Palomar Mountain--ZTF  (N33.357340 W116.859780)  US/California. 1.2-m
   f/2.44 Oschin Schmidt + CCD.

Orbital elements:  ZTF02s3
   Perigee 2019 Feb 10.350758 +/- 38.8 TT =  8:25:05 (JD 2458524.850758)
Epoch 2019 Feb 10.0 TT = JDT 2458524.5                        AutoNEOCP
q  2446.38050 +/- 1.57e+7           (J2000 equator)
H   34.7  G 0.15                    Peri.  278.79113 +/- 41
                                    Node     8.73677 +/- 60
e   1.0844187 +/- 0.161             Incl.   28.17529 +/- 0.9
From 4 observations 2019 Feb. 10 (13.0 min); mean residual 2".12
IMPACT at 10 Feb 2019 8:15:30.79 lat +0.94021 lon W76.95955
Residuals in arcseconds: 
190210 I41  2.6-  2.1+    190210 I41  2.5+  .31-    
190210 I41  2.7+  2.2-    190210 I41  2.5-  .42+    

Ephemerides (geocentric):
Date (UTC) HH   RA              Dec         delta   r     elong  mag " sig PA
---- -- -- --  -------------   -----------  ------ ------ -----  --- ---- ---
2019 02 19 10  00 07 25.267   -03 50 51.70  .01800 .97295  30.2 34?? 105d 174
2019 02 19 11  00 07 24.615   -03 50 53.94  .01808 .97289  30.2 34?? 105d 174
2019 02 19 12  00 07 23.959   -03 50 56.21  .01816 .97282  30.2 34?? 105d 174
2019 02 19 13  00 07 23.297   -03 50 58.51  .01824 .97275  30.1 34?? 105d 174
2019 02 19 14  00 07 22.631   -03 51 00.84  .01832 .97268  30.1 34?? 105d 174
2019 02 19 15  00 07 21.960   -03 51 03.19  .01840 .97262  30.0 34?? 105d 174
2019 02 19 16  00 07 21.284   -03 51 05.58  .01848 .97255  30.0 34?? 105d 174
2019 02 19 17  00 07 20.604   -03 51 07.98  .01856 .97248  29.9 34?? 105d 174
2019 02 19 18  00 07 19.919   -03 51 10.42  .01864 .97241  29.9 34?? 105d 174
2019 02 19 19  00 07 19.229   -03 51 12.88  .01872 .97235  29.8 34?? 105d 174
2019 02 19 20  00 07 18.535   -03 51 15.36  .01880 .97228  29.8 34?? 105d 174
2019 02 19 21  00 07 17.836   -03 51 17.87  .01888 .97221  29.8 34?? 105d 174
2019 02 19 22  00 07 17.133   -03 51 20.41  .01896 .97214  29.7 34?? 105d 174
2019 02 19 23  00 07 16.426   -03 51 22.97  .01904 .97208  29.7 34?? 105d 174
2019 02 20 00  00 07 15.714   -03 51 25.55  .01912 .97201  29.6 34?? 105d 174
2019 02 20 01  00 07 14.998   -03 51 28.16  .01920 .97194  29.6 34?? 105d 174
2019 02 20 02  00 07 14.277   -03 51 30.79  .01928 .97187  29.5 34?? 105d 174
2019 02 20 03  00 07 13.553   -03 51 33.45  .01936 .97180  29.5 34?? 105d 174
2019 02 20 04  00 07 12.824   -03 51 36.13  .01944 .97174  29.4 34?? 105d 174
2019 02 20 05  00 07 12.091   -03 51 38.83  .01952 .97167  29.4 34?? 105d 174
2019 02 20 06  00 07 11.354   -03 51 41.55  .01960 .97160  29.4 34?? 104d 174
2019 02 20 07  00 07 10.613   -03 51 44.29  .01968 .97153  29.3 34?? 104d 174
2019 02 20 08  00 07 09.868   -03 51 47.06  .01976 .97146  29.3 34?? 104d 174
2019 02 20 09  00 07 09.119   -03 51 49.85  .01984 .97139  29.2 34?? 104d 174
2019 02 20 10  00 07 08.367   -03 51 52.66  .01992 .97133  29.2 34?? 104d 174
2019 02 20 11  00 07 07.610   -03 51 55.49  .02000 .97126  29.1 34?? 104d 174
2019 02 20 12  00 07 06.849   -03 51 58.34  .02009 .97119  29.1 34?? 104d 174
2019 02 20 13  00 07 06.085   -03 52 01.21  .02017 .97112  29.0 34?? 104d 174
2019 02 20 14  00 07 05.317   -03 52 04.10  .02025 .97105  29.0 34?? 104d 174
2019 02 20 15  00 07 04.545   -03 52 07.01  .02033 .97098  28.9 34?? 104d 174
2019 02 20 16  00 07 03.770   -03 52 09.94  .02041 .97091  28.9 34?? 104d 174
2019 02 20 17  00 07 02.991   -03 52 12.88  .02049 .97084  28.9 34?? 104d 174
2019 02 20 18  00 07 02.208   -03 52 15.85  .02057 .97078  28.8 34?? 104d 174
2019 02 20 19  00 07 01.422   -03 52 18.84  .02065 .97071  28.8 34?? 104d 174
2019 02 20 20  00 07 00.632   -03 52 21.84  .02073 .97064  28.7 34?? 104d 174
2019 02 20 21  00 06 59.839   -03 52 24.86  .02081 .97057  28.7 34?? 104d 174
2019 02 20 22  00 06 59.042   -03 52 27.90  .02089 .97050  28.6 34?? 104d 174
2019 02 20 23  00 06 58.242   -03 52 30.96  .02097 .97043  28.6 34?? 104d 174
2019 02 21 00  00 06 57.439   -03 52 34.03  .02105 .97036  28.5 34?? 104d 174
2019 02 21 01  00 06 56.632   -03 52 37.12  .02113 .97029  28.5 34?? 104d 174
2019 02 21 02  00 06 55.822   -03 52 40.23  .02121 .97022  28.5 34?? 104d 174
2019 02 21 03  00 06 55.009   -03 52 43.35  .02129 .97015  28.4 34?? 104d 174
2019 02 21 04  00 06 54.192   -03 52 46.49  .02137 .97008  28.4 34?? 104d 174
2019 02 21 05  00 06 53.372   -03 52 49.65  .02145 .97001  28.3 35?? 104d 174
2019 02 21 06  00 06 52.549   -03 52 52.82  .02153 .96994  28.3 35?? 104d 174
2019 02 21 07  00 06 51.723   -03 52 56.01  .02162 .96987  28.2 35?? 104d 174
2019 02 21 08  00 06 50.893   -03 52 59.21  .02170 .96980  28.2 35?? 104d 174
2019 02 21 09  00 06 50.061   -03 53 02.43  .02178 .96974  28.1 35?? 104d 174